• în România
  • Lista ţărilor
  • Pe 7 zile
  • Temperatura apei
  • Hartă satelitară
  • Meteo pe hartă
  • Widget-uri
  • user-avatar
    Intrare

    Meteo pe oră la Pesno

    Astăzi, 14 Noiembrie, Miercuri

    Timp Temperatura Precipitaţii Vânt Presiune Umiditate
    00:00 -4°C° 0.5 mm 6 m/s 749 mmHg 66%
    01:00 -4°C° 0.5 mm 6 m/s 749 mmHg 73%
    02:00 -4°C° 0 mm 5 m/s 748 mmHg 79%
    03:00 -4°C° 0.8 mm 5 m/s 747 mmHg 80%
    04:00 -5°C° 0.8 mm 5 m/s 747 mmHg 81%
    05:00 -5°C° 0.8 mm 5 m/s 747 mmHg 82%
    06:00 -5°C° 0.8 mm 5 m/s 747 mmHg 84%
    07:00 -4°C° 0.8 mm 4 m/s 747 mmHg 86%
    08:00 -4°C° 0.8 mm 4 m/s 746 mmHg 89%
    09:00 -4°C° 0.9 mm 4 m/s 747 mmHg 89%
    10:00 -4°C° 0.9 mm 4 m/s 747 mmHg 90%
    11:00 -4°C° 0.9 mm 3 m/s 747 mmHg 90%
    12:00 -4°C° 0.6 mm 3 m/s 747 mmHg 90%
    13:00 -4°C° 0.6 mm 3 m/s 747 mmHg 90%
    14:00 -4°C° 0.6 mm 3 m/s 747 mmHg 89%
    15:00 -3°C° 0.3 mm 2 m/s 747 mmHg 90%
    16:00 -3°C° 0.3 mm 2 m/s 748 mmHg 90%
    17:00 -3°C° 0.3 mm 2 m/s 748 mmHg 90%
    18:00 -1°C° 0.1 mm 1 m/s 748 mmHg 91%
    19:00 -1°C° 0.1 mm 1 m/s 749 mmHg 91%
    20:00 -1°C° 0.1 mm 1 m/s 749 mmHg 92%
    21:00 -1°C° 0 mm 1 m/s 749 mmHg 92%
    22:00 -2°C° 0 mm 1 m/s 749 mmHg 93%
    23:00 -2°C° 0 mm 1 m/s 750 mmHg 93%

    Mâine, 15 Noiembrie, Joi

    Timp Temperatura Precipitaţii Vânt Presiune Umiditate
    00:00 -2°C° 0 mm 1 m/s 750 mmHg 93%
    01:00 -2°C° 0 mm 1 m/s 751 mmHg 94%
    02:00 -3°C° 0 mm 0 m/s 751 mmHg 94%
    03:00 -3°C° 0 mm 0 m/s 751 mmHg 94%
    04:00 -3°C° 0 mm 0 m/s 752 mmHg 94%
    05:00 -3°C° 0 mm 0 m/s 752 mmHg 94%
    06:00 -3°C° 0 mm 0 m/s 753 mmHg 94%
    07:00 -3°C° 0 mm 0 m/s 753 mmHg 94%
    08:00 -4°C° 0 mm 0 m/s 754 mmHg 94%
    09:00 -3°C° 0 mm 0 m/s 754 mmHg 91%
    10:00 0°C° 0 mm 1 m/s 754 mmHg 88%
    11:00 +1°C° 0 mm 1 m/s 755 mmHg 85%
    12:00 0°C° 0 mm 0 m/s 755 mmHg 85%
    13:00 0°C° 0 mm 0 m/s 756 mmHg 85%
    14:00 0°C° 0 mm 0 m/s 756 mmHg 85%
    15:00 -1°C° 0 mm 0 m/s 756 mmHg 88%
    16:00 -2°C° 0 mm 0 m/s 757 mmHg 91%
    17:00 -3°C° 0 mm 0 m/s 757 mmHg 93%
    18:00 -3°C° 0 mm 0 m/s 757 mmHg 94%
    19:00 -2°C° 0 mm 1 m/s 758 mmHg 94%
    20:00 -2°C° 0 mm 1 m/s 758 mmHg 94%
    21:00 -2°C° 0 mm 1 m/s 758 mmHg 95%
    22:00 -2°C° 0 mm 1 m/s 759 mmHg 95%
    23:00 -2°C° 0 mm 1 m/s 759 mmHg 95%

    Poimâine, 16 Noiembrie, Vineri

    Timp Temperatura Precipitaţii Vânt Presiune Umiditate
    00:00 -3°C° 0 mm 1 m/s 759 mmHg 96%
    01:00 -3°C° 0 mm 1 m/s 760 mmHg 96%
    02:00 -3°C° 0 mm 1 m/s 760 mmHg 96%
    03:00 -3°C° 0 mm 1 m/s 760 mmHg 96%
    04:00 -3°C° 0 mm 1 m/s 760 mmHg 96%
    05:00 -3°C° 0 mm 1 m/s 760 mmHg 96%
    06:00 -2°C° 0 mm 1 m/s 761 mmHg 96%
    07:00 -2°C° 0 mm 1 m/s 761 mmHg 96%
    08:00 -2°C° 0 mm 1 m/s 761 mmHg 96%
    09:00 -1°C° 0 mm 1 m/s 761 mmHg 94%
    10:00 0°C° 0 mm 1 m/s 762 mmHg 92%
    11:00 +1°C° 0 mm 1 m/s 762 mmHg 90%
    12:00 +1°C° 0 mm 1 m/s 762 mmHg 90%
    13:00 +2°C° 0 mm 1 m/s 762 mmHg 91%
    14:00 +2°C° 0 mm 1 m/s 762 mmHg 92%
    15:00 +1°C° 0 mm 1 m/s 762 mmHg 93%
    16:00 0°C° 0 mm 1 m/s 762 mmHg 95%
    17:00 -1°C° 0 mm 1 m/s 762 mmHg 96%
    18:00 -1°C° 0 mm 1 m/s 762 mmHg 96%
    19:00 -3°C° 0 mm 2 m/s 762 mmHg 96%
    20:00 -3°C° 0 mm 2 m/s 762 mmHg 96%
    21:00 -3°C° 0 mm 2 m/s 761 mmHg 96%
    22:00 -3°C° 0 mm 2 m/s 761 mmHg 97%
    23:00 -4°C° 0 mm 2 m/s 761 mmHg 97%

    17 Noiembrie, Sâmbătă

    Timp Temperatura Precipitaţii Vânt Presiune Umiditate
    00:00 -3°C° 0 mm 2 m/s 761 mmHg 96%
    01:00 -3°C° 0 mm 2 m/s 761 mmHg 96%
    02:00 -2°C° 0 mm 2 m/s 761 mmHg 96%
    03:00 -2°C° 0.1 mm 2 m/s 761 mmHg 95%
    04:00 -2°C° 0.1 mm 3 m/s 760 mmHg 95%
    05:00 -1°C° 0.1 mm 3 m/s 760 mmHg 94%
    06:00 -1°C° 0.1 mm 3 m/s 759 mmHg 94%
    07:00 -1°C° 0.1 mm 3 m/s 759 mmHg 94%
    08:00 -1°C° 0.1 mm 3 m/s 759 mmHg 94%
    09:00 0°C° 0.1 mm 3 m/s 758 mmHg 95%
    10:00 0°C° 0.1 mm 3 m/s 758 mmHg 95%
    11:00 +1°C° 0.1 mm 3 m/s 757 mmHg 95%
    12:00 +1°C° 0 mm 3 m/s 757 mmHg 95%
    13:00 +1°C° 0 mm 3 m/s 756 mmHg 96%
    14:00 +1°C° 0 mm 3 m/s 755 mmHg 96%
    15:00 +1°C° 0.1 mm 3 m/s 755 mmHg 96%
    16:00 +1°C° 0.1 mm 3 m/s 754 mmHg 96%
    17:00 +1°C° 0.1 mm 3 m/s 753 mmHg 96%
    18:00 +1°C° 0.1 mm 3 m/s 752 mmHg 96%
    19:00 +1°C° 0.1 mm 3 m/s 752 mmHg 96%
    20:00 +1°C° 0.1 mm 3 m/s 751 mmHg 96%
    21:00 +2°C° 0.1 mm 3 m/s 750 mmHg 96%
    22:00 +2°C° 0.1 mm 3 m/s 749 mmHg 96%
    23:00 +2°C° 0.1 mm 3 m/s 749 mmHg 95%

    18 Noiembrie, Duminică

    Timp Temperatura Precipitaţii Vânt Presiune Umiditate
    00:00 +2°C° 0.1 mm 3 m/s 748 mmHg 96%
    01:00 +1°C° 0.1 mm 3 m/s 748 mmHg 96%
    02:00 +1°C° 0.1 mm 3 m/s 747 mmHg 96%
    03:00 +1°C° 0.1 mm 3 m/s 746 mmHg 96%
    04:00 +1°C° 0.1 mm 3 m/s 746 mmHg 95%
    05:00 +1°C° 0.1 mm 3 m/s 745 mmHg 95%
    06:00 +1°C° 0.1 mm 3 m/s 745 mmHg 95%
    07:00 +1°C° 0.1 mm 3 m/s 745 mmHg 95%
    08:00 +1°C° 0.1 mm 3 m/s 745 mmHg 95%
    09:00 +1°C° 0.2 mm 3 m/s 745 mmHg 95%
    10:00 +2°C° 0.2 mm 3 m/s 745 mmHg 94%
    11:00 +2°C° 0.2 mm 3 m/s 745 mmHg 93%
    12:00 +2°C° 0.2 mm 3 m/s 745 mmHg 93%
    13:00 +2°C° 0.2 mm 3 m/s 745 mmHg 93%
    14:00 +2°C° 0.2 mm 3 m/s 745 mmHg 93%
    15:00 +2°C° 0.2 mm 3 m/s 745 mmHg 93%
    16:00 +1°C° 0.2 mm 3 m/s 745 mmHg 93%
    17:00 +1°C° 0.2 mm 3 m/s 745 mmHg 93%
    18:00 +1°C° 0.1 mm 3 m/s 745 mmHg 93%
    19:00 +1°C° 0.1 mm 3 m/s 746 mmHg 93%
    20:00 +1°C° 0.1 mm 3 m/s 746 mmHg 92%
    21:00 +1°C° 0.2 mm 3 m/s 746 mmHg 92%
    22:00 0°C° 0.2 mm 3 m/s 746 mmHg 92%
    23:00 0°C° 0.2 mm 3 m/s 747 mmHg 92%

    19 Noiembrie, Luni

    Timp Temperatura Precipitaţii Vânt Presiune Umiditate
    00:00 0°C° 0.1 mm 3 m/s 747 mmHg 92%
    01:00 0°C° 0.1 mm 3 m/s 747 mmHg 91%
    02:00 0°C° 0.1 mm 3 m/s 748 mmHg 91%
    03:00 0°C° 0 mm 3 m/s 748 mmHg 90%
    04:00 -1°C° 0 mm 4 m/s 749 mmHg 90%
    05:00 -1°C° 0 mm 4 m/s 749 mmHg 89%
    06:00 -1°C° 0 mm 4 m/s 750 mmHg 89%
    07:00 -1°C° 0 mm 4 m/s 750 mmHg 88%
    08:00 -1°C° 0 mm 4 m/s 751 mmHg 88%
    09:00 -1°C° 0 mm 4 m/s 752 mmHg 87%
    10:00 -1°C° 0 mm 4 m/s 752 mmHg 86%
    11:00 0°C° 0 mm 4 m/s 753 mmHg 84%
    12:00 0°C° 0.1 mm 5 m/s 753 mmHg 84%
    13:00 0°C° 0.1 mm 5 m/s 754 mmHg 83%
    14:00 0°C° 0.1 mm 5 m/s 754 mmHg 82%
    15:00 -1°C° 0 mm 5 m/s 755 mmHg 79%
    16:00 -2°C° 0 mm 4 m/s 755 mmHg 77%
    17:00 -3°C° 0 mm 4 m/s 756 mmHg 74%
    18:00 -3°C° 0 mm 4 m/s 756 mmHg 75%
    19:00 -3°C° 0 mm 4 m/s 756 mmHg 76%
    20:00 -3°C° 0 mm 4 m/s 757 mmHg 77%
    21:00 -2°C° 0 mm 3 m/s 757 mmHg 79%
    22:00 -2°C° 0 mm 3 m/s 758 mmHg 81%
    23:00 -2°C° 0 mm 3 m/s 758 mmHg 84%
    Arată mai mult